Time,TemperatureF,DewpointF,PressureIn,WindDirection,WindDirectionDegrees,WindSpeedMPH,WindSpeedGustMPH,Humidity,HourlyPrecipIn,Conditions,Clouds,dailyrainin,SoftwareType,DateUTC
2013-01-06 00:00:00,15.8,9.9,30.11,WNW,294,3.1,3.1,77,0.00,,OVC026,0.00,VWS V14.01,2013-01-06 05:00:00,
2013-01-06 00:01:00,15.8,9.9,30.11,WNW,294,3.1,3.1,77,0.00,,OVC026,0.00,VWS V14.01,2013-01-06 05:01:00,
2013-01-06 00:05:00,15.8,9.9,30.11,WNW,294,3.1,3.1,77,0.00,,OVC026,0.00,VWS V14.01,2013-01-06 05:05:00,
2013-01-06 00:10:00,16.0,10.1,30.11,WNW,294,3.1,3.1,77,0.00,,OVC026,0.00,VWS V14.01,2013-01-06 05:10:00,
2013-01-06 00:15:00,16.0,10.1,30.11,WNW,294,3.1,3.1,77,0.00,,OVC026,0.00,VWS V14.01,2013-01-06 05:15:00,
2013-01-06 00:20:00,16.0,10.1,30.11,WNW,294,3.1,3.1,77,0.00,,OVC026,0.00,VWS V14.01,2013-01-06 05:20:00,
2013-01-06 00:25:00,16.0,10.1,30.11,WNW,294,3.1,3.1,77,0.00,,OVC026,0.00,VWS V14.01,2013-01-06 05:25:00,
2013-01-06 00:30:00,16.3,10.7,30.11,WNW,294,3.1,3.1,78,0.00,,OVC026,0.00,VWS V14.01,2013-01-06 05:30:00,
2013-01-06 00:35:00,16.5,10.9,30.11,WNW,294,3.1,3.1,78,0.00,,OVC026,0.00,VWS V14.01,2013-01-06 05:35:00,
2013-01-06 00:40:00,16.5,10.9,30.11,WNW,294,3.1,3.1,78,0.00,,OVC026,0.00,VWS V14.01,2013-01-06 05:40:00,
2013-01-06 00:45:00,16.5,10.9,30.11,WNW,294,3.1,3.1,78,0.00,,OVC026,0.00,VWS V14.01,2013-01-06 05:45:00,
2013-01-06 00:50:00,16.5,10.9,30.11,WNW,294,3.1,3.1,78,0.00,,OVC026,0.00,VWS V14.01,2013-01-06 05:50:00,
2013-01-06 00:55:00,16.5,10.9,30.11,WNW,294,3.1,3.1,78,0.00,,OVC026,0.00,VWS V14.01,2013-01-06 05:55:00,
2013-01-06 01:00:00,16.7,11.3,30.11,WNW,294,3.1,3.1,79,0.00,,OVC026,0.00,VWS V14.01,2013-01-06 06:00:00,
2013-01-06 01:05:00,16.7,11.3,30.05,WNW,294,3.1,3.1,79,0.00,,OVC026,0.00,VWS V14.01,2013-01-06 06:05:00,
2013-01-06 01:10:00,16.7,11.3,30.05,WNW,294,3.1,3.1,79,0.00,,OVC026,0.00,VWS V14.01,2013-01-06 06:10:00,
2013-01-06 01:15:00,16.7,11.3,30.05,WNW,294,3.1,3.1,79,0.00,,OVC026,0.00,VWS V14.01,2013-01-06 06:15:00,
2013-01-06 01:20:00,16.7,11.3,30.05,WNW,294,3.1,3.1,79,0.00,,OVC026,0.00,VWS V14.01,2013-01-06 06:20:00,
2013-01-06 01:25:00,16.7,11.3,30.05,WNW,294,3.1,3.1,79,0.00,,OVC026,0.00,VWS V14.01,2013-01-06 06:25:00,
2013-01-06 01:30:00,16.7,11.3,30.05,WNW,294,3.1,3.1,79,0.00,,OVC026,0.00,VWS V14.01,2013-01-06 06:30:00,
2013-01-06 01:35:00,16.9,11.5,30.05,WNW,294,3.1,3.1,79,0.00,,OVC026,0.00,VWS V14.01,2013-01-06 06:35:00,
2013-01-06 01:40:00,16.9,11.5,30.05,WNW,294,3.1,3.1,79,0.00,,OVC026,0.00,VWS V14.01,2013-01-06 06:40:00,
2013-01-06 01:45:00,17.1,11.7,30.05,WNW,294,3.1,3.1,79,0.00,,OVC024,0.00,VWS V14.01,2013-01-06 06:45:00,
2013-01-06 01:50:00,17.1,11.7,30.05,WNW,294,3.1,3.1,79,0.00,,OVC024,0.00,VWS V14.01,2013-01-06 06:50:00,
2013-01-06 01:55:00,17.1,11.7,30.05,WNW,294,3.1,3.1,79,0.00,,OVC024,0.00,VWS V14.01,2013-01-06 06:55:00,
2013-01-06 02:00:00,17.1,11.7,30.05,WNW,294,3.1,3.1,79,0.00,,OVC024,0.00,VWS V14.01,2013-01-06 07:00:00,
2013-01-06 02:05:00,17.6,12.5,30.05,WNW,294,3.1,3.1,80,0.00,,OVC024,0.00,VWS V14.01,2013-01-06 07:05:00,
2013-01-06 02:10:00,17.8,12.4,30.05,WNW,294,3.1,3.1,79,0.00,,OVC024,0.00,VWS V14.01,2013-01-06 07:10:00,
2013-01-06 02:15:00,17.8,12.4,30.05,WNW,294,3.1,3.1,79,0.00,,OVC024,0.00,VWS V14.01,2013-01-06 07:15:00,
2013-01-06 02:20:00,17.8,12.4,30.05,WNW,294,3.1,3.1,79,0.00,,OVC024,0.00,VWS V14.01,2013-01-06 07:20:00,
2013-01-06 02:25:00,17.8,12.7,30.05,WNW,294,3.1,3.1,80,0.00,,OVC024,0.00,VWS V14.01,2013-01-06 07:25:00,
2013-01-06 02:30:00,18.3,13.2,30.05,WNW,294,3.1,3.1,80,0.00,,OVC024,0.00,VWS V14.01,2013-01-06 07:30:00,
2013-01-06 02:35:00,18.3,13.2,30.05,WNW,294,3.1,3.1,80,0.00,,OVC024,0.00,VWS V14.01,2013-01-06 07:35:00,
2013-01-06 02:40:00,18.3,13.2,30.05,WNW,294,3.1,3.1,80,0.00,,OVC028,0.00,VWS V14.01,2013-01-06 07:40:00,
2013-01-06 02:45:00,18.3,13.2,30.05,WNW,294,3.1,3.1,80,0.00,,OVC028,0.00,VWS V14.01,2013-01-06 07:45:00,
2013-01-06 02:50:00,19.4,14.5,30.05,WNW,294,3.1,3.1,81,0.00,,OVC028,0.00,VWS V14.01,2013-01-06 07:50:00,
2013-01-06 02:55:00,19.4,14.5,30.05,WNW,294,3.1,3.1,81,0.00,,OVC028,0.00,VWS V14.01,2013-01-06 07:55:00,
2013-01-06 03:00:00,19.4,14.5,30.05,WNW,294,3.1,3.1,81,0.00,,OVC028,0.00,VWS V14.01,2013-01-06 08:00:00,
2013-01-06 03:05:00,19.4,14.5,30.05,WNW,294,3.1,3.1,81,0.00,,OVC028,0.00,VWS V14.01,2013-01-06 08:05:00,
2013-01-06 03:10:00,19.4,14.5,30.05,WNW,294,3.1,3.1,81,0.00,,OVC028,0.00,VWS V14.01,2013-01-06 08:10:00,
2013-01-06 03:15:00,19.4,14.5,30.05,WNW,294,3.1,3.1,81,0.00,,OVC028,0.00,VWS V14.01,2013-01-06 08:15:00,
2013-01-06 03:20:00,19.4,14.5,30.05,WNW,294,3.1,3.1,81,0.00,,OVC028,0.00,VWS V14.01,2013-01-06 08:20:00,
2013-01-06 03:25:00,19.4,14.5,30.05,WNW,294,3.1,3.1,81,0.00,,OVC028,0.00,VWS V14.01,2013-01-06 08:25:00,
2013-01-06 03:30:00,19.4,14.5,30.05,WNW,294,3.1,3.1,81,0.00,,OVC028,0.00,VWS V14.01,2013-01-06 08:30:00,
2013-01-06 03:35:00,19.4,14.5,30.05,WNW,294,3.1,3.1,81,0.00,,OVC028,0.00,VWS V14.01,2013-01-06 08:35:00,
2013-01-06 03:40:00,19.4,14.5,30.05,WNW,294,3.1,3.1,81,0.00,,OVC028,0.00,VWS V14.01,2013-01-06 08:40:00,
2013-01-06 03:45:00,19.4,14.5,30.05,WNW,294,3.1,3.1,81,0.00,,OVC028,0.00,VWS V14.01,2013-01-06 08:45:00,
2013-01-06 03:50:00,19.4,14.5,30.05,WNW,294,3.1,3.1,81,0.00,,OVC090,0.00,VWS V14.01,2013-01-06 08:50:00,
2013-01-06 03:55:00,19.4,14.5,30.05,WNW,294,3.1,3.1,81,0.00,,OVC090,0.00,VWS V14.01,2013-01-06 08:55:00,
2013-01-06 04:00:00,19.2,14.4,30.05,WNW,294,3.1,3.1,81,0.00,,OVC090,0.00,VWS V14.01,2013-01-06 09:00:00,
2013-01-06 04:05:00,19.2,14.4,30.05,WNW,294,3.1,3.1,81,0.00,,OVC090,0.00,VWS V14.01,2013-01-06 09:05:00,
2013-01-06 04:10:00,19.2,14.4,30.05,WNW,294,3.1,3.1,81,0.00,,OVC090,0.00,VWS V14.01,2013-01-06 09:10:00,
2013-01-06 04:15:00,19.2,14.4,30.05,WNW,294,3.1,3.1,81,0.00,,OVC090,0.00,VWS V14.01,2013-01-06 09:15:00,
2013-01-06 04:20:00,19.2,14.6,30.05,WNW,294,3.1,3.1,82,0.00,,OVC090,0.00,VWS V14.01,2013-01-06 09:20:00,
2013-01-06 04:25:00,19.2,14.6,30.05,WNW,294,3.1,3.1,82,0.00,,OVC090,0.00,VWS V14.01,2013-01-06 09:25:00,
2013-01-06 04:30:00,19.2,14.6,30.05,WNW,294,3.1,3.1,82,0.00,,OVC090,0.00,VWS V14.01,2013-01-06 09:30:00,
2013-01-06 04:35:00,19.2,14.6,30.05,WNW,294,3.1,3.1,82,0.00,,OVC090,0.00,VWS V14.01,2013-01-06 09:35:00,
2013-01-06 04:41:00,19.2,14.6,30.05,WNW,294,3.1,3.1,82,0.00,,,0.00,VWS V14.01,2013-01-06 09:41:00,
2013-01-06 04:46:00,19.2,14.6,30.05,WNW,294,3.1,3.1,82,0.00,,,0.00,VWS V14.01,2013-01-06 09:46:00,
2013-01-06 04:51:00,19.8,15.2,30.05,WNW,294,3.1,3.1,82,0.00,,,0.00,VWS V14.01,2013-01-06 09:51:00,
2013-01-06 04:56:00,19.8,15.2,30.05,WNW,294,3.1,3.1,82,0.00,,,0.00,VWS V14.01,2013-01-06 09:56:00,
2013-01-06 05:01:00,19.8,15.2,30.05,WNW,294,3.1,3.1,82,0.00,,,0.00,VWS V14.01,2013-01-06 10:01:00,
2013-01-06 05:06:00,19.8,15.2,30.05,WNW,294,3.1,3.1,82,0.00,,,0.00,VWS V14.01,2013-01-06 10:06:00,
2013-01-06 05:11:00,19.8,15.2,30.05,WNW,294,3.1,3.1,82,0.00,,,0.00,VWS V14.01,2013-01-06 10:11:00,
2013-01-06 05:16:00,19.8,15.2,30.05,WNW,294,3.1,3.1,82,0.00,,,0.00,VWS V14.01,2013-01-06 10:16:00,
2013-01-06 05:21:00,19.8,15.2,30.05,WNW,294,3.1,3.1,82,0.00,,,0.00,VWS V14.01,2013-01-06 10:21:00,
2013-01-06 05:26:00,19.8,15.2,30.05,WNW,294,3.1,3.1,82,0.00,,,0.00,VWS V14.01,2013-01-06 10:26:00,
2013-01-06 05:31:00,19.8,15.2,30.05,WNW,294,3.1,3.1,82,0.00,,,0.00,VWS V14.01,2013-01-06 10:31:00,
2013-01-06 05:36:00,19.8,15.2,30.05,WNW,294,3.1,3.1,82,0.00,,,0.00,VWS V14.01,2013-01-06 10:36:00,
2013-01-06 05:41:00,19.8,15.4,30.05,WNW,294,3.1,3.1,83,0.00,,,0.00,VWS V14.01,2013-01-06 10:41:00,
2013-01-06 05:46:00,19.8,15.4,30.05,WNW,294,3.1,3.1,83,0.00,,,0.00,VWS V14.01,2013-01-06 10:46:00,
2013-01-06 05:51:00,19.8,15.4,30.05,WNW,294,3.1,3.1,83,0.00,,,0.00,VWS V14.01,2013-01-06 10:51:00,
2013-01-06 05:56:00,19.8,15.4,30.05,WNW,294,3.1,3.1,83,0.00,,,0.00,VWS V14.01,2013-01-06 10:56:00,
2013-01-06 06:01:00,20.1,15.8,30.05,WNW,294,3.1,3.1,83,0.00,,,0.00,VWS V14.01,2013-01-06 11:01:00,
2013-01-06 06:06:00,20.1,15.8,30.05,WNW,294,3.1,3.1,83,0.00,,,0.00,VWS V14.01,2013-01-06 11:06:00,
2013-01-06 06:11:00,20.1,15.8,30.05,WNW,294,3.1,3.1,83,0.00,,,0.00,VWS V14.01,2013-01-06 11:11:00,
2013-01-06 06:16:00,19.8,15.4,30.05,WNW,294,3.1,3.1,83,0.00,,,0.00,VWS V14.01,2013-01-06 11:16:00,
2013-01-06 06:21:00,19.8,15.4,30.05,WNW,294,3.1,3.1,83,0.00,,,0.00,VWS V14.01,2013-01-06 11:21:00,
2013-01-06 06:26:00,19.6,15.3,30.05,WNW,294,3.1,3.1,83,0.00,,,0.00,VWS V14.01,2013-01-06 11:26:00,
2013-01-06 06:31:00,19.6,15.3,30.05,WNW,294,3.1,3.1,83,0.00,,,0.00,VWS V14.01,2013-01-06 11:31:00,
2013-01-06 06:36:00,19.6,15.3,30.05,WNW,294,3.1,3.1,83,0.00,,,0.00,VWS V14.01,2013-01-06 11:36:00,
2013-01-06 06:41:00,19.6,15.3,30.05,WNW,294,3.1,3.1,83,0.00,,,0.00,VWS V14.01,2013-01-06 11:41:00,
2013-01-06 06:46:00,19.6,15.3,100.00,WNW,294,3.1,3.1,83,0.00,,,0.00,VWS V14.01,2013-01-06 11:46:00,
2013-01-06 06:51:00,20.3,16.2,100.00,WNW,294,3.1,3.1,84,0.00,,,0.00,VWS V14.01,2013-01-06 11:51:00,
2013-01-06 06:56:00,20.3,16.2,100.00,WNW,294,3.1,3.1,84,0.00,,,0.00,VWS V14.01,2013-01-06 11:56:00,
2013-01-06 07:01:00,20.3,16.2,100.00,WNW,294,3.1,3.1,84,0.00,,,0.00,VWS V14.01,2013-01-06 12:01:00,
2013-01-06 07:06:00,20.3,16.2,100.00,WNW,294,3.1,3.1,84,0.00,,,0.00,VWS V14.01,2013-01-06 12:06:00,
2013-01-06 07:11:00,20.8,17.0,100.00,WNW,294,3.1,3.1,85,0.00,,,0.00,VWS V14.01,2013-01-06 12:11:00,
2013-01-06 07:16:00,20.8,17.0,100.00,WNW,294,3.1,3.1,85,0.00,,,0.00,VWS V14.01,2013-01-06 12:16:00,
2013-01-06 07:21:00,21.4,17.6,100.00,WNW,294,3.1,3.1,85,0.00,,,0.00,VWS V14.01,2013-01-06 12:21:00,
2013-01-06 07:26:00,21.4,17.6,100.00,WNW,294,3.1,3.1,85,0.00,,,0.00,VWS V14.01,2013-01-06 12:26:00,
2013-01-06 07:31:00,21.4,17.6,100.00,WNW,294,3.1,3.1,85,0.00,,,0.00,VWS V14.01,2013-01-06 12:31:00,
2013-01-06 07:36:00,21.7,18.2,100.00,WNW,294,3.1,3.1,86,0.00,,,0.00,VWS V14.01,2013-01-06 12:36:00,
2013-01-06 07:41:00,21.7,18.2,100.00,WNW,294,3.1,3.1,86,0.00,,,0.00,VWS V14.01,2013-01-06 12:41:00,
2013-01-06 07:46:00,21.7,18.2,100.00,WNW,294,3.1,3.1,86,0.00,,,0.00,VWS V14.01,2013-01-06 12:46:00,
2013-01-06 07:51:00,21.7,18.2,100.00,WNW,294,3.1,3.1,86,0.00,,,0.00,VWS V14.01,2013-01-06 12:51:00,
2013-01-06 07:56:00,21.7,18.2,100.00,WNW,294,3.1,3.1,86,0.00,,,0.00,VWS V14.01,2013-01-06 12:56:00,
2013-01-06 08:01:00,22.8,19.5,100.00,WNW,294,3.1,3.1,87,0.00,,,0.00,VWS V14.01,2013-01-06 13:01:00,
2013-01-06 08:06:00,22.8,19.5,100.00,WNW,294,3.1,3.1,87,0.00,,,0.00,VWS V14.01,2013-01-06 13:06:00,
2013-01-06 08:12:00,23.7,20.4,100.00,WNW,294,3.1,3.1,87,0.00,,,0.00,VWS V14.01,2013-01-06 13:12:00,
2013-01-06 08:17:00,23.7,20.4,100.00,WNW,294,3.1,3.1,87,0.00,,,0.00,VWS V14.01,2013-01-06 13:17:00,
2013-01-06 08:22:00,24.3,21.0,100.00,WNW,294,3.1,3.1,87,0.00,,,0.00,VWS V14.01,2013-01-06 13:22:00,
2013-01-06 08:27:00,24.3,21.0,100.00,WNW,294,3.1,3.1,87,0.00,,,0.00,VWS V14.01,2013-01-06 13:27:00,
2013-01-06 08:32:00,24.3,21.0,100.00,WNW,294,3.1,3.1,87,0.00,,,0.00,VWS V14.01,2013-01-06 13:32:00,
2013-01-06 08:37:00,24.3,21.0,100.00,WNW,294,3.1,3.1,87,0.00,,,0.00,VWS V14.01,2013-01-06 13:37:00,
2013-01-06 08:42:00,24.3,21.0,100.00,WNW,294,3.1,3.1,87,0.00,,,0.00,VWS V14.01,2013-01-06 13:42:00,
2013-01-06 08:47:00,24.8,21.8,100.00,WNW,294,3.1,3.1,88,0.00,,,0.00,VWS V14.01,2013-01-06 13:47:00,
2013-01-06 08:52:00,24.8,21.8,100.00,WNW,294,3.1,3.1,88,0.00,,,0.00,VWS V14.01,2013-01-06 13:52:00,
2013-01-06 08:57:00,24.8,21.8,100.00,WNW,294,3.1,3.1,88,0.00,,,0.00,VWS V14.01,2013-01-06 13:57:00,
2013-01-06 09:02:00,24.8,21.8,100.00,WNW,294,3.1,3.1,88,0.00,,,0.00,VWS V14.01,2013-01-06 14:02:00,
2013-01-06 09:07:00,24.8,21.8,100.00,WNW,294,3.1,3.1,88,0.00,,,0.00,VWS V14.01,2013-01-06 14:07:00,
2013-01-06 09:12:00,25.3,22.3,100.00,WNW,294,3.1,3.1,88,0.00,,,0.00,VWS V14.01,2013-01-06 14:12:00,
2013-01-06 09:17:00,25.5,22.5,100.00,WNW,294,3.1,3.1,88,0.00,,,0.00,VWS V14.01,2013-01-06 14:17:00,
2013-01-06 09:22:00,25.5,22.5,100.00,WNW,294,3.1,3.1,88,0.00,,,0.00,VWS V14.01,2013-01-06 14:22:00,
2013-01-06 09:27:00,25.5,22.5,100.00,WNW,294,3.1,3.1,88,0.00,,,0.00,VWS V14.01,2013-01-06 14:27:00,
2013-01-06 09:32:00,25.9,22.8,100.00,WNW,294,3.1,3.1,88,0.00,,,0.00,VWS V14.01,2013-01-06 14:32:00,
2013-01-06 09:37:00,25.9,22.8,100.00,WNW,294,3.1,3.1,88,0.00,,,0.00,VWS V14.01,2013-01-06 14:37:00,
2013-01-06 09:42:00,25.9,22.8,100.00,WNW,294,3.1,3.1,88,0.00,,,0.00,VWS V14.01,2013-01-06 14:42:00,
2013-01-06 09:47:00,26.2,23.2,100.00,WNW,294,3.1,3.1,88,0.00,,,0.00,VWS V14.01,2013-01-06 14:47:00,
2013-01-06 09:52:00,26.2,23.2,100.00,WNW,294,3.1,3.1,88,0.00,,,0.00,VWS V14.01,2013-01-06 14:52:00,
2013-01-06 09:57:00,26.6,23.5,100.00,WNW,294,3.1,3.1,88,0.00,,,0.00,VWS V14.01,2013-01-06 14:57:00,
2013-01-06 10:02:00,27.0,23.9,100.00,WNW,294,3.1,3.1,88,0.00,,,0.00,VWS V14.01,2013-01-06 15:02:00,
2013-01-06 10:07:00,27.0,23.9,100.00,WNW,294,3.1,3.1,88,0.00,,,0.00,VWS V14.01,2013-01-06 15:07:00,
2013-01-06 10:12:00,27.0,23.9,100.00,WNW,294,3.1,3.1,88,0.00,,,0.00,VWS V14.01,2013-01-06 15:12:00,
2013-01-06 10:17:00,27.1,24.1,100.00,WNW,294,3.1,3.1,88,0.00,,,0.00,VWS V14.01,2013-01-06 15:17:00,
2013-01-06 10:23:00,27.1,24.1,100.00,WNW,294,3.1,3.1,88,0.00,,,0.00,VWS V14.01,2013-01-06 15:23:00,
2013-01-06 10:28:00,27.1,24.1,100.00,WNW,294,3.1,3.1,88,0.00,,,0.00,VWS V14.01,2013-01-06 15:28:00,
2013-01-06 10:33:00,27.1,24.1,100.00,WNW,294,3.1,3.1,88,0.00,,,0.00,VWS V14.01,2013-01-06 15:33:00,
2013-01-06 10:38:00,27.1,24.1,100.00,WNW,294,3.1,3.1,88,0.00,,,0.00,VWS V14.01,2013-01-06 15:38:00,
2013-01-06 10:43:00,27.9,24.8,100.00,WNW,294,3.1,3.1,88,0.00,,,0.00,VWS V14.01,2013-01-06 15:43:00,
2013-01-06 10:48:00,27.9,24.8,100.00,WNW,294,3.1,3.1,88,0.00,,,0.00,VWS V14.01,2013-01-06 15:48:00,
2013-01-06 10:53:00,27.9,24.8,100.00,WNW,294,3.1,3.1,88,0.00,,,0.00,VWS V14.01,2013-01-06 15:53:00,
2013-01-06 10:58:00,27.9,24.8,100.00,WNW,294,3.1,3.1,88,0.00,,,0.00,VWS V14.01,2013-01-06 15:58:00,
2013-01-06 11:03:00,27.9,24.8,100.00,WNW,294,3.1,3.1,88,0.00,,,0.00,VWS V14.01,2013-01-06 16:03:00,
2013-01-06 11:08:00,28.2,25.1,100.00,WNW,294,3.1,3.1,88,0.00,,,0.00,VWS V14.01,2013-01-06 16:08:00,
2013-01-06 11:13:00,28.4,25.3,100.00,WNW,294,3.1,3.1,88,0.00,,,0.00,VWS V14.01,2013-01-06 16:13:00,
2013-01-06 11:18:00,28.4,25.3,100.00,WNW,294,3.1,3.1,88,0.00,,,0.00,VWS V14.01,2013-01-06 16:18:00,
2013-01-06 11:23:00,28.4,25.3,100.00,WNW,294,3.1,3.1,88,0.00,,,0.00,VWS V14.01,2013-01-06 16:23:00,
2013-01-06 11:28:00,28.4,25.3,100.00,WNW,294,3.1,3.1,88,0.00,,,0.00,VWS V14.01,2013-01-06 16:28:00,
2013-01-06 11:33:00,28.4,25.6,100.00,WNW,294,3.1,3.1,89,0.00,,,0.00,VWS V14.01,2013-01-06 16:33:00,
2013-01-06 11:38:00,28.4,25.6,100.00,WNW,294,3.1,3.1,89,0.00,,,0.00,VWS V14.01,2013-01-06 16:38:00,
2013-01-06 11:43:00,28.6,25.5,100.00,WNW,294,3.1,3.1,88,0.00,,,0.00,VWS V14.01,2013-01-06 16:43:00,
2013-01-06 11:48:00,28.6,25.5,100.00,WNW,294,3.1,3.1,88,0.00,,,0.00,VWS V14.01,2013-01-06 16:48:00,
2013-01-06 11:53:00,28.6,25.5,100.00,WNW,294,3.1,3.1,88,0.00,,,0.00,VWS V14.01,2013-01-06 16:53:00,
2013-01-06 11:58:00,28.6,25.5,100.00,WNW,294,3.1,3.1,88,0.00,,,0.00,VWS V14.01,2013-01-06 16:58:00,
2013-01-06 12:03:00,28.6,25.5,100.00,WNW,294,3.1,3.1,88,0.00,,,0.00,VWS V14.01,2013-01-06 17:03:00,
2013-01-06 12:08:00,28.6,25.5,100.00,WNW,294,3.1,3.1,88,0.00,,,0.00,VWS V14.01,2013-01-06 17:08:00,
2013-01-06 12:13:00,28.8,25.9,100.00,WNW,294,3.1,3.1,89,0.00,,,0.00,VWS V14.01,2013-01-06 17:13:00,
2013-01-06 12:18:00,28.8,25.9,100.00,WNW,294,3.1,3.1,89,0.00,,,0.00,VWS V14.01,2013-01-06 17:18:00,
2013-01-06 12:23:00,28.8,25.9,100.00,WNW,294,3.1,3.1,89,0.00,,,0.00,VWS V14.01,2013-01-06 17:23:00,
2013-01-06 12:28:00,28.9,26.1,100.00,WNW,294,3.1,3.1,89,0.00,,,0.00,VWS V14.01,2013-01-06 17:28:00,
2013-01-06 12:33:00,28.9,26.1,100.00,WNW,294,3.1,3.1,89,0.00,,,0.00,VWS V14.01,2013-01-06 17:33:00,
2013-01-06 12:38:00,28.9,26.1,100.00,WNW,294,3.1,3.1,89,0.00,,,0.00,VWS V14.01,2013-01-06 17:38:00,
2013-01-06 12:43:00,29.3,26.5,100.00,WNW,294,3.1,3.1,89,0.00,,,0.00,VWS V14.01,2013-01-06 17:43:00,
2013-01-06 12:48:00,29.3,26.5,100.00,WNW,294,3.1,3.1,89,0.00,,,0.00,VWS V14.01,2013-01-06 17:48:00,
2013-01-06 12:53:00,29.3,26.5,100.00,WNW,294,3.1,3.1,89,0.00,,,0.00,VWS V14.01,2013-01-06 17:53:00,
2013-01-06 12:58:00,29.3,26.5,100.00,WNW,294,3.1,3.1,89,0.00,,,0.00,VWS V14.01,2013-01-06 17:58:00,
2013-01-06 13:03:00,29.7,26.8,100.00,WNW,294,3.1,3.1,89,0.00,,,0.00,VWS V14.01,2013-01-06 18:03:00,
2013-01-06 13:08:00,29.8,27.0,100.00,WNW,294,3.1,3.1,89,0.00,,,0.00,VWS V14.01,2013-01-06 18:08:00,
2013-01-06 13:13:00,29.8,27.0,100.00,WNW,294,3.1,3.1,89,0.00,,,0.00,VWS V14.01,2013-01-06 18:13:00,
2013-01-06 13:18:00,30.2,27.6,100.00,WNW,294,3.1,3.1,90,0.00,,,0.00,VWS V14.01,2013-01-06 18:18:00,
2013-01-06 13:23:00,30.2,27.6,100.00,WNW,294,3.1,3.1,90,0.00,,,0.00,VWS V14.01,2013-01-06 18:23:00,
2013-01-06 13:28:00,30.7,27.9,100.00,WNW,294,3.1,3.1,89,0.00,,,0.00,VWS V14.01,2013-01-06 18:28:00,
2013-01-06 13:33:00,30.7,27.9,100.00,WNW,294,3.1,3.1,89,0.00,,,0.00,VWS V14.01,2013-01-06 18:33:00,
2013-01-06 13:38:00,30.7,27.9,100.00,WNW,294,3.1,3.1,89,0.00,,,0.00,VWS V14.01,2013-01-06 18:38:00,
2013-01-06 13:43:00,31.3,28.7,100.00,WNW,294,3.1,3.1,90,0.00,,,0.00,VWS V14.01,2013-01-06 18:43:00,
2013-01-06 13:48:00,31.3,28.7,100.00,WNW,294,3.1,3.1,90,0.00,,,0.00,VWS V14.01,2013-01-06 18:48:00,
2013-01-06 13:53:00,31.5,28.9,29.84,WNW,294,3.1,3.1,90,0.00,,,0.00,VWS V14.01,2013-01-06 18:53:00,
2013-01-06 13:59:00,31.5,28.9,29.84,WNW,294,3.1,3.1,90,0.00,,,0.00,VWS V14.01,2013-01-06 18:59:00,
2013-01-06 14:03:00,31.5,28.6,29.84,WNW,294,3.1,3.1,89,0.00,,,0.00,VWS V14.01,2013-01-06 19:03:00,
2013-01-06 14:09:00,31.5,28.6,29.84,WNW,294,3.1,3.1,89,0.00,,,0.00,VWS V14.01,2013-01-06 19:09:00,
2013-01-06 14:14:00,31.6,28.8,29.84,WNW,294,3.1,3.1,89,0.00,,,0.00,VWS V14.01,2013-01-06 19:14:00,
2013-01-06 14:19:00,31.6,28.8,29.84,WNW,294,3.1,3.1,89,0.00,,,0.00,VWS V14.01,2013-01-06 19:19:00,
2013-01-06 14:24:00,31.6,28.8,29.84,WNW,294,3.1,3.1,89,0.00,,,0.00,VWS V14.01,2013-01-06 19:24:00,
2013-01-06 14:29:00,32.0,29.1,29.84,WNW,294,3.1,3.1,89,0.00,,,0.00,VWS V14.01,2013-01-06 19:29:00,
2013-01-06 14:34:00,32.0,29.1,29.84,WNW,294,3.1,3.1,89,0.00,,,0.00,VWS V14.01,2013-01-06 19:34:00,
2013-01-06 14:39:00,32.4,29.5,29.84,WNW,294,3.1,3.1,89,0.00,,,0.00,VWS V14.01,2013-01-06 19:39:00,
2013-01-06 14:49:00,32.4,29.5,29.84,WNW,294,3.1,3.1,89,0.00,,,0.00,VWS V14.01,2013-01-06 19:49:00,
2013-01-06 14:54:00,31.8,28.7,29.84,WNW,294,3.1,3.1,88,0.00,,,0.00,VWS V14.01,2013-01-06 19:54:00,
2013-01-06 14:59:00,31.8,28.7,29.84,WNW,294,3.1,3.1,88,0.00,,,0.00,VWS V14.01,2013-01-06 19:59:00,
2013-01-06 15:04:00,31.1,27.7,29.84,WNW,294,3.1,3.1,87,0.00,,,0.00,VWS V14.01,2013-01-06 20:04:00,
2013-01-06 15:09:00,31.1,27.7,29.84,WNW,294,3.1,3.1,87,0.00,,,0.00,VWS V14.01,2013-01-06 20:09:00,
2013-01-06 15:11:00,31.1,27.7,29.84,WNW,294,3.1,3.1,87,0.00,,,0.00,VWS V14.01,2013-01-06 20:11:00,
2013-01-06 15:13:00,31.1,27.7,29.84,WNW,294,3.1,3.1,87,0.00,,,0.00,VWS V14.01,2013-01-06 20:13:00,
2013-01-06 15:18:00,31.1,27.7,29.84,WNW,294,3.1,3.1,87,0.00,,,0.00,VWS V14.01,2013-01-06 20:18:00,
2013-01-06 15:23:00,31.1,27.7,29.84,WNW,294,3.1,3.1,87,0.00,,,0.00,VWS V14.01,2013-01-06 20:23:00,
2013-01-06 15:28:00,30.9,27.5,29.84,WNW,294,3.1,3.1,87,0.00,,,0.00,VWS V14.01,2013-01-06 20:28:00,
2013-01-06 15:33:00,30.9,27.5,29.84,WNW,294,3.1,3.1,87,0.00,,,0.00,VWS V14.01,2013-01-06 20:33:00,
2013-01-06 15:38:00,30.9,27.5,29.84,WNW,294,3.1,3.1,87,0.00,,,0.00,VWS V14.01,2013-01-06 20:38:00,
2013-01-06 15:43:00,30.9,27.5,29.84,WNW,294,3.1,3.1,87,0.00,,,0.00,VWS V14.01,2013-01-06 20:43:00,
2013-01-06 15:48:00,30.9,27.5,29.84,WNW,294,3.1,3.1,87,0.00,,,0.00,VWS V14.01,2013-01-06 20:48:00,
2013-01-06 15:53:00,30.7,27.3,29.84,WNW,294,3.1,3.1,87,0.00,,,0.00,VWS V14.01,2013-01-06 20:53:00,
2013-01-06 15:58:00,30.7,27.3,29.84,WNW,294,3.1,3.1,87,0.00,,,0.00,VWS V14.01,2013-01-06 20:58:00,
2013-01-06 16:01:00,30.7,27.3,29.84,WNW,294,3.1,3.1,87,0.00,,,0.00,VWS V14.01,2013-01-06 21:01:00,
2013-01-06 16:06:00,30.6,27.2,29.84,WNW,294,3.1,3.1,87,0.00,,,0.00,VWS V14.01,2013-01-06 21:06:00,
2013-01-06 16:11:00,30.4,27.0,29.84,WNW,294,3.1,3.1,87,0.00,,,0.00,VWS V14.01,2013-01-06 21:11:00,
2013-01-06 16:16:00,30.4,27.0,29.84,WNW,294,3.1,3.1,87,0.00,,,0.00,VWS V14.01,2013-01-06 21:16:00,
2013-01-06 16:21:00,30.4,27.0,29.84,WNW,294,3.1,3.1,87,0.00,,,0.00,VWS V14.01,2013-01-06 21:21:00,
2013-01-06 16:26:00,30.4,27.0,29.84,WNW,294,3.1,3.1,87,0.00,,,0.00,VWS V14.01,2013-01-06 21:26:00,
2013-01-06 16:31:00,30.2,26.8,29.84,WNW,294,3.1,3.1,87,0.00,,,0.00,VWS V14.01,2013-01-06 21:31:00,
2013-01-06 16:36:00,30.0,26.9,29.84,WNW,294,3.1,3.1,88,0.00,,,0.00,VWS V14.01,2013-01-06 21:36:00,
2013-01-06 16:41:00,30.0,26.9,29.84,WNW,294,3.1,3.1,88,0.00,,,0.00,VWS V14.01,2013-01-06 21:41:00,
2013-01-06 16:46:00,30.0,26.9,29.84,WNW,294,3.1,3.1,88,0.00,,,0.00,VWS V14.01,2013-01-06 21:46:00,
2013-01-06 16:51:00,30.0,26.9,29.84,WNW,294,3.1,3.1,88,0.00,,,0.00,VWS V14.01,2013-01-06 21:51:00,
2013-01-06 16:56:00,30.0,26.9,29.84,WNW,294,3.1,3.1,88,0.00,,,0.00,VWS V14.01,2013-01-06 21:56:00,
2013-01-06 17:01:00,30.0,26.9,29.84,WNW,294,3.1,3.1,88,0.00,,,0.00,VWS V14.01,2013-01-06 22:01:00,
2013-01-06 17:06:00,30.0,26.9,29.84,WNW,294,3.1,3.1,88,0.00,,,0.00,VWS V14.01,2013-01-06 22:06:00,
2013-01-06 17:11:00,30.0,26.9,29.84,WNW,294,3.1,3.1,88,0.00,,,0.00,VWS V14.01,2013-01-06 22:11:00,
2013-01-06 17:16:00,30.0,26.9,29.84,WNW,294,3.1,3.1,88,0.00,,,0.00,VWS V14.01,2013-01-06 22:16:00,
2013-01-06 17:21:00,30.0,26.9,29.84,WNW,294,3.1,3.1,88,0.00,,,0.00,VWS V14.01,2013-01-06 22:21:00,
2013-01-06 17:26:00,30.0,26.9,29.84,WNW,294,3.1,3.1,88,0.00,,,0.00,VWS V14.01,2013-01-06 22:26:00,
2013-01-06 17:31:00,30.0,26.9,29.84,WNW,294,3.1,3.1,88,0.00,,,0.00,VWS V14.01,2013-01-06 22:31:00,
2013-01-06 17:36:00,30.0,26.9,29.84,WNW,294,3.1,3.1,88,0.00,,,0.00,VWS V14.01,2013-01-06 22:36:00,
2013-01-06 17:41:00,30.2,27.4,29.84,WNW,294,3.1,3.1,89,0.00,,,0.00,VWS V14.01,2013-01-06 22:41:00,
2013-01-06 17:46:00,30.2,27.4,29.84,WNW,294,3.1,3.1,89,0.00,,,0.00,VWS V14.01,2013-01-06 22:46:00,
2013-01-06 17:51:00,30.2,27.4,29.84,WNW,294,3.1,3.1,89,0.00,,,0.00,VWS V14.01,2013-01-06 22:51:00,
2013-01-06 17:56:00,30.2,27.4,29.84,WNW,294,3.1,3.1,89,0.00,,,0.00,VWS V14.01,2013-01-06 22:56:00,
2013-01-06 18:01:00,30.2,27.4,29.84,WNW,294,3.1,3.1,89,0.00,,,0.00,VWS V14.01,2013-01-06 23:01:00,
2013-01-06 18:06:00,30.2,27.4,29.84,WNW,294,3.1,3.1,89,0.00,,,0.00,VWS V14.01,2013-01-06 23:06:00,
2013-01-06 18:11:00,30.2,27.4,29.84,WNW,294,3.1,3.1,89,0.00,,,0.00,VWS V14.01,2013-01-06 23:11:00,
2013-01-06 18:16:00,30.4,27.5,29.84,WNW,294,3.1,3.1,89,0.00,,,0.00,VWS V14.01,2013-01-06 23:16:00,
2013-01-06 18:21:00,30.4,27.5,29.84,WNW,294,3.1,3.1,89,0.00,,,0.00,VWS V14.01,2013-01-06 23:21:00,
2013-01-06 18:26:00,30.4,27.5,29.84,WNW,294,3.1,3.1,89,0.00,,,0.00,VWS V14.01,2013-01-06 23:26:00,
2013-01-06 18:31:00,30.4,27.5,29.84,WNW,294,3.1,3.1,89,0.00,,,0.00,VWS V14.01,2013-01-06 23:31:00,
2013-01-06 18:36:00,30.4,27.5,29.84,WNW,294,3.1,3.1,89,0.00,,,0.00,VWS V14.01,2013-01-06 23:36:00,
2013-01-06 18:41:00,30.4,27.5,29.84,WNW,294,3.1,3.1,89,0.00,,,0.00,VWS V14.01,2013-01-06 23:41:00,
2013-01-06 18:47:00,30.4,27.5,29.84,WNW,294,3.1,3.1,89,0.00,,,0.00,VWS V14.01,2013-01-06 23:47:00,
2013-01-06 18:52:00,30.4,27.8,29.84,WNW,294,3.1,3.1,90,0.00,,,0.00,VWS V14.01,2013-01-06 23:52:00,
2013-01-06 18:57:00,30.4,27.8,29.84,WNW,294,3.1,3.1,90,0.00,,,0.00,VWS V14.01,2013-01-06 23:57:00,
2013-01-06 19:02:00,30.4,27.8,29.84,WNW,294,3.1,3.1,90,0.00,,,0.00,VWS V14.01,2013-01-07 00:02:00,
2013-01-06 19:07:00,30.4,27.8,29.84,WNW,294,3.1,3.1,90,0.00,,,0.00,VWS V14.01,2013-01-07 00:07:00,
2013-01-06 19:12:00,30.4,27.8,29.84,WNW,294,3.1,3.1,90,0.00,,,0.00,VWS V14.01,2013-01-07 00:12:00,
2013-01-06 19:17:00,30.6,28.0,29.84,WNW,294,3.1,3.1,90,0.00,,,0.00,VWS V14.01,2013-01-07 00:17:00,
2013-01-06 19:22:00,30.6,28.0,29.84,WNW,294,3.1,3.1,90,0.00,,,0.00,VWS V14.01,2013-01-07 00:22:00,
2013-01-06 19:27:00,30.6,28.0,29.84,WNW,294,3.1,3.1,90,0.00,,,0.00,VWS V14.01,2013-01-07 00:27:00,
2013-01-06 19:32:00,30.6,28.0,29.84,WNW,294,3.1,3.1,90,0.00,,,0.00,VWS V14.01,2013-01-07 00:32:00,
2013-01-06 19:37:00,30.6,28.0,29.84,WNW,294,3.1,3.1,90,0.00,,,0.00,VWS V14.01,2013-01-07 00:37:00,
2013-01-06 19:42:00,30.6,28.0,29.87,WNW,294,3.1,3.1,90,0.00,,,0.00,VWS V14.01,2013-01-07 00:42:00,
2013-01-06 19:47:00,30.6,28.0,29.87,WNW,294,3.1,3.1,90,0.00,,,0.00,VWS V14.01,2013-01-07 00:47:00,
2013-01-06 19:52:00,30.6,28.0,29.87,WNW,294,3.1,3.1,90,0.00,,,0.00,VWS V14.01,2013-01-07 00:52:00,
2013-01-06 19:57:00,30.7,28.4,29.87,WNW,294,3.1,3.1,91,0.00,,,0.00,VWS V14.01,2013-01-07 00:57:00,
2013-01-06 20:02:00,30.7,28.4,29.87,WNW,294,3.1,3.1,91,0.00,,,0.00,VWS V14.01,2013-01-07 01:02:00,
2013-01-06 20:07:00,30.9,28.6,29.84,WNW,294,3.1,3.1,91,0.00,,,0.00,VWS V14.01,2013-01-07 01:07:00,
2013-01-06 20:12:00,30.9,28.6,29.84,WNW,294,3.1,3.1,91,0.00,,,0.00,VWS V14.01,2013-01-07 01:12:00,
2013-01-06 20:17:00,30.9,28.6,29.84,WNW,294,3.1,3.1,91,0.00,,,0.00,VWS V14.01,2013-01-07 01:17:00,
2013-01-06 20:22:00,30.9,28.6,29.84,WNW,294,3.1,3.1,91,0.00,,,0.00,VWS V14.01,2013-01-07 01:22:00,
2013-01-06 20:27:00,30.9,28.6,29.84,WNW,294,3.1,3.1,91,0.00,,,0.00,VWS V14.01,2013-01-07 01:27:00,
2013-01-06 20:32:00,31.6,29.6,29.84,WNW,294,3.1,3.1,92,0.00,,,0.00,VWS V14.01,2013-01-07 01:32:00,
2013-01-06 20:37:00,31.6,29.6,29.84,WNW,294,3.1,3.1,92,0.00,,,0.00,VWS V14.01,2013-01-07 01:37:00,
2013-01-06 20:42:00,31.6,29.6,29.84,WNW,294,3.1,3.1,92,0.00,,,0.00,VWS V14.01,2013-01-07 01:42:00,
2013-01-06 20:47:00,31.6,29.6,29.84,WNW,294,3.1,3.1,92,0.00,,,0.00,VWS V14.01,2013-01-07 01:47:00,
2013-01-06 20:52:00,31.6,29.3,29.84,WNW,294,3.1,3.1,91,0.00,,,0.00,VWS V14.01,2013-01-07 01:52:00,
2013-01-06 20:57:00,31.6,29.3,29.87,WNW,294,3.1,3.1,91,0.00,,,0.00,VWS V14.01,2013-01-07 01:57:00,
2013-01-06 21:02:00,31.6,29.3,29.87,WNW,294,3.1,3.1,91,0.00,,,0.00,VWS V14.01,2013-01-07 02:02:00,
2013-01-06 21:07:00,31.6,29.3,29.87,WNW,294,3.1,3.1,91,0.00,,,0.00,VWS V14.01,2013-01-07 02:07:00,
2013-01-06 21:12:00,31.6,29.3,29.87,WNW,294,3.1,3.1,91,0.00,,,0.00,VWS V14.01,2013-01-07 02:12:00,
2013-01-06 21:17:00,31.3,29.0,29.87,WNW,294,3.1,3.1,91,0.00,,,0.00,VWS V14.01,2013-01-07 02:17:00,
2013-01-06 21:22:00,31.3,29.0,29.87,WNW,294,3.1,3.1,91,0.00,,,0.00,VWS V14.01,2013-01-07 02:22:00,
2013-01-06 21:27:00,31.3,29.0,29.87,WNW,294,3.1,3.1,91,0.00,,,0.00,VWS V14.01,2013-01-07 02:27:00,
2013-01-06 21:32:00,31.1,28.8,29.87,WNW,294,3.1,3.1,91,0.00,,,0.00,VWS V14.01,2013-01-07 02:32:00,
2013-01-06 21:37:00,31.1,28.8,29.87,WNW,294,3.1,3.1,91,0.00,,,0.00,VWS V14.01,2013-01-07 02:37:00,
2013-01-06 21:42:00,31.3,29.0,29.87,WNW,294,3.1,3.1,91,0.00,,OVC008,0.00,VWS V14.01,2013-01-07 02:42:00,
2013-01-06 21:47:00,31.3,29.0,29.87,WNW,294,3.1,3.1,91,0.00,,OVC008,0.00,VWS V14.01,2013-01-07 02:47:00,
2013-01-06 21:52:00,31.5,29.1,29.87,WNW,294,3.1,3.1,91,0.00,,OVC008,0.00,VWS V14.01,2013-01-07 02:52:00,
2013-01-06 21:57:00,31.5,29.1,29.87,WNW,294,3.1,3.1,91,0.00,,OVC008,0.00,VWS V14.01,2013-01-07 02:57:00,
2013-01-06 22:02:00,31.5,29.1,29.87,WNW,294,3.1,3.1,91,0.00,,OVC008,0.00,VWS V14.01,2013-01-07 03:02:00,
2013-01-06 22:07:00,31.5,29.1,29.87,WNW,294,3.1,3.1,91,0.00,,OVC008,0.00,VWS V14.01,2013-01-07 03:07:00,
2013-01-06 22:12:00,31.5,29.1,29.87,WNW,294,3.1,3.1,91,0.00,,OVC008,0.00,VWS V14.01,2013-01-07 03:12:00,
2013-01-06 22:17:00,31.3,29.0,29.87,WNW,294,3.1,3.1,91,0.00,,OVC008,0.00,VWS V14.01,2013-01-07 03:17:00,
2013-01-06 22:22:00,31.3,29.0,29.87,WNW,294,3.1,3.1,91,0.00,,OVC008,0.00,VWS V14.01,2013-01-07 03:22:00,
2013-01-06 22:27:00,31.5,29.1,29.87,WNW,294,3.1,3.1,91,0.00,,OVC008,0.00,VWS V14.01,2013-01-07 03:27:00,
2013-01-06 22:32:00,31.5,29.1,29.90,WNW,294,3.1,3.1,91,0.00,,OVC008,0.00,VWS V14.01,2013-01-07 03:32:00,
2013-01-06 22:37:00,31.5,29.1,29.90,WNW,294,3.1,3.1,91,0.00,,OVC008,0.00,VWS V14.01,2013-01-07 03:37:00,
2013-01-06 22:42:00,31.5,29.1,29.90,WNW,294,3.1,3.1,91,0.00,,,0.00,VWS V14.01,2013-01-07 03:42:00,
2013-01-06 22:47:00,31.5,29.1,29.90,WNW,294,3.1,3.1,91,0.00,,,0.00,VWS V14.01,2013-01-07 03:47:00,
2013-01-06 22:52:00,31.5,29.1,29.90,WNW,294,3.1,3.1,91,0.00,,,0.00,VWS V14.01,2013-01-07 03:52:00,
2013-01-06 22:57:00,31.5,29.1,29.90,WNW,294,3.1,3.1,91,0.00,,,0.00,VWS V14.01,2013-01-07 03:57:00,
2013-01-06 23:02:00,31.5,29.1,29.90,WNW,294,3.1,3.1,91,0.00,,,0.00,VWS V14.01,2013-01-07 04:02:00,
2013-01-06 23:07:00,31.5,29.1,29.90,WNW,294,3.1,3.1,91,0.00,,,0.00,VWS V14.01,2013-01-07 04:07:00,
2013-01-06 23:12:00,31.5,29.1,29.90,WNW,294,3.1,3.1,91,0.00,,,0.00,VWS V14.01,2013-01-07 04:12:00,
2013-01-06 23:17:00,31.5,29.1,29.90,WNW,294,3.1,3.1,91,0.00,,,0.00,VWS V14.01,2013-01-07 04:17:00,
2013-01-06 23:22:00,31.5,29.1,29.90,WNW,294,3.1,3.1,91,0.00,,,0.00,VWS V14.01,2013-01-07 04:22:00,
2013-01-06 23:27:00,31.5,29.1,29.90,WNW,294,3.1,3.1,91,0.00,,,0.00,VWS V14.01,2013-01-07 04:27:00,
2013-01-06 23:32:00,31.5,29.1,29.90,WNW,294,3.1,3.1,91,0.00,,,0.00,VWS V14.01,2013-01-07 04:32:00,
2013-01-06 23:37:00,31.5,29.1,29.90,WNW,294,3.1,3.1,91,0.00,,,0.00,VWS V14.01,2013-01-07 04:37:00,
2013-01-06 23:42:00,31.5,29.1,29.90,WNW,294,3.1,3.1,91,0.00,,,0.00,VWS V14.01,2013-01-07 04:42:00,
2013-01-06 23:48:00,31.3,29.0,29.90,WNW,294,3.1,3.1,91,0.00,,,0.00,VWS V14.01,2013-01-07 04:48:00,
2013-01-06 23:53:00,31.3,29.2,29.90,WNW,294,3.1,3.1,92,0.00,,,0.00,VWS V14.01,2013-01-07 04:53:00,
2013-01-06 23:58:00,31.3,29.2,29.90,WNW,294,3.1,3.1,92,0.00,,,0.00,VWS V14.01,2013-01-07 04:58:00,